Location: Jaite
(41.2884°N, 81.5737°W)
Time: 02:17:11
(UTC+00:00)

COSMO-SKYMED 1 - Pass Details

Date: 18 January 2020
Orbit: 621 x 623 km, 97.9° (Epoch: 22 February)

Event Time Altitude Azimuth Distance (km) Brightness Sun altitude
Rises 11:01:46 0° 179° (S) 2,889 6.1 -19.8°
Reaches altitude 10° 11:04:00 10° 185° (S) 1,988 5.2 -19.4°
Maximum altitude 11:08:11 48° 260° (W) 814 2.7 -18.6°
Enters shadow 11:09:37 35° 311° (NW) 1,022 3.2 -18.3°
